Retour au catalogue

FENGYUN 1C DEB

ActifPO
NORAD 33661·DEBRIS·🇨🇳 China

Lancé May 10, 1999 depuis Taiyuan Satellite Launch Center

Loading…

Prochains Passages (prochaines 24 heures)

TLE

FraisSource: Space-Track

Époque: Sep 14, 2026, 02:40 UTC

1 33661U 99025DEW 26257.11124065  .00000823  00000-0  76256-3 0  9998
2 33661  98.3889 115.7657 0230140 132.7341  18.1192 13.73370330682366

Suivez FENGYUN 1C DEB en temps réel avec AllMySat

Download on the App Store